Location: Unspecified
(42.3650°N, 71.1030°W)
Time: 15:24:35
(UTC+00:00)

Tiros 1 - Pass Details

Date: 03 July 2024
Orbit: 624 x 656 km, 48.4° (Epoch: 13 July)

Event Time Altitude Azimuth Distance (km) Brightness Sun altitude
Rises 23:48:39 0° 222° (SW) 2,902 10.7 4.9°
Reaches altitude 10° 23:51:02 10° 216° (SW) 1,994 9.8 4.5°
Maximum altitude 23:55:25 46° 144° (SE) 840 7.5 3.8°
Drops below altitude 10° 23:59:48 10° 71° (ENE) 1,995 9.3 3.1°
Sets 00:02:10 0° 66° (ENE) 2,904 10.1 2.7°
